Weather observations for the past three days for
Pearson Airfield
Imperial (Metric)
Date Time (pdt) Wind (mph) Vis. (mi.) Weather Sky Cond. Temperature (ºF) Relative Humidity Wind Chill (°F) Heat Index (°F) Pressure Precipitation (in)
Air Dwpt 6 hour altimeter (in) sea level (mb) 1 hr 3 hr 6 hr
Max. Min.
18 14:53 Vrbl 3 10.00 Fair CLR 84 50 31% 82 30.07 1018.1
18 13:53 E 6 10.00 Fair CLR 82 54 38% 81 30.08 1018.6
18 12:53 Vrbl 3 10.00 Fair CLR 78.1 54 43% 79 30.09 1019.0
18 11:53 SW 5 10.00 Fair CLR 73.9 54 50% 30.1 1019.4
18 10:53 Calm 10.00 Fair CLR 71.1 54 72 57 55% 30.11 1019.7
18 09:53 S 5 10.00 Fair CLR 68 55 63% 30.12 1020.0
18 08:53 W 5 10.00 Fair CLR 64 54 70% 30.13 1020.4
18 07:53 Calm 10.00 Fair CLR 61 53.1 75% 30.13 1020.4
18 06:53 Calm 10.00 Fair CLR 60.1 53.1 78% 30.12 1019.9
18 05:53 N 5 10.00 Fair CLR 59 52 78% 30.11 1019.6
18 04:53 Calm 10.00 Fair CLR 57 50 69.1 55.9 78% 30.1 1019.4
18 03:53 Calm 10.00 Fair CLR 57.9 50 75% 30.08 1018.7
18 02:53 Calm 10.00 Fair CLR 61 51.1 70% 30.07 1018.4
18 01:53 N 3 10.00 Fair CLR 63 51.1 65% 30.07 1018.2
18 00:53 NW 3 10.00 Fair CLR 64 52 65% 30.07 1018.2
17 23:53 NW 6 10.00 Fair CLR 66 53.1 63% 30.06 1017.8
17 22:53 Vrbl 6 10.00 Fair CLR 69.1 54 87.1 69.1 59% 30.04 1017.3
17 21:53 NW 7 10.00 Fair CLR 72 55 55% 30.04 1017.2
17 20:53 NW 5 10.00 Fair CLR 77 57.9 52% 79 30.01 1016.2
17 19:53 NW 9 10.00 Fair CLR 82 60.1 47% 82 29.99 1015.5
17 18:53 Calm 10.00 Fair CLR 86 55.9 36% 85 29.98 1015.3
17 17:53 Vrbl 3 10.00 Fair CLR 86 57 37% 85 29.98 1015.2
17 16:53 Calm 10.00 Fair CLR 84.9 55.9 84.9 73 37% 84 29.99 1015.4
17 15:53 Calm 10.00 Fair CLR 84.9 55.9 37% 84 30 1015.9
17 14:53 Vrbl 3 10.00 Fair CLR 81 55.9 42% 81 30.01 1016.2
17 13:53 Vrbl 3 10.00 Fair CLR 80.1 55.9 44% 80 30.02 1016.5
17 12:53 Vrbl 6 10.00 Fair CLR 77 55 47% 78 30.02 1016.6
17 11:53 S 6 10.00 Fair CLR 75 54 48% 78 30.03 1016.8
17 10:53 Vrbl 6 10.00 Fair CLR 73 54 73 64 51% 30.02 1016.5
17 09:53 Vrbl 6 10.00 Fair CLR 70 54 57% 30.01 1016.3
17 08:53 SE 6 10.00 Fair CLR 68 53.1 59% 30.02 1016.4
17 07:53 SE 6 10.00 Fair CLR 64.9 53.1 66% 30.01 1016.4
17 06:53 SW 5 10.00 Fair CLR 64 54 70% 30 1015.9
17 05:53 SE 8 10.00 Fair CLR 68 54 61% 29.97 1014.8
17 04:53 Calm 10.00 Fair CLR 68 55.9 84.9 66.9 65% 29.94 1013.9
17 03:53 W 8 10.00 Fair CLR 70 55 59% 29.93 1013.6
17 02:53 N 5 10.00 Fair CLR 72 53.1 52% 29.94 1013.9
17 01:53 E 6 10.00 Fair CLR 73 54 51% 29.94 1013.9
17 00:53 Calm 10.00 Fair CLR 75.9 54 47% 78 29.91 1012.7
16 23:53 Calm 10.00 Fair CLR 82.9 57 41% 82 29.9 1012.6
16 22:53 NW 5 10.00 Fair CLR 84 55.9 96.1 82 38% 83 29.87 1011.5
16 21:53 W 8 10.00 Fair CLR 84.9 57 39% 84 29.84 1010.3
16 20:53 NW 6 10.00 Fair CLR 89.1 55.9 33% 87 29.83 1010.0
16 19:53 Vrbl 3 10.00 Fair CLR 91.9 55 29% 90 29.82 1009.8
16 18:53 NW 9 10.00 Fair CLR 93.9 54 26% 92 29.83 1010.0
16 17:53 NW 10 10.00 Fair CLR 95 57 28% 94 29.84 1010.4
16 16:53 NW 10 10.00 Fair CLR 95 55.9 96.1 75.9 27% 93 29.86 1011.2
16 15:53 NW 9 10.00 Fair CLR 93 52 25% 90 29.88 1011.9
16 14:53 NW 8 10.00 Fair CLR 90 54 29% 88 29.91 1012.7
16 13:53 W 9 10.00 Fair CLR 86 57 37% 85 29.93 1013.5
16 12:53 SW 7 10.00 Fair CLR 82 60.1 47% 82 29.95 1014.2
16 11:53 SW 7 10.00 Fair CLR 78.1 60.1 54% 79 29.97 1014.9
16 10:53 W 9 10.00 Fair CLR 75 60.1 77 59 60% 77 29.98 1015.3
16 09:53 NW 6 10.00 Fair CLR 72 59 64% 30 1015.7
16 08:53 W 7 10.00 Fair CLR 68 59 73% 30 1016.0
16 07:53 Calm 10.00 NULL NULL 64.9 57 76% 30.01 1016.1
16 06:53 NW 3 10.00 Fair CLR 63 57 81% 30 1016.0
16 05:53 Calm 10.00 Fair CLR 61 55 81% 30 1016.0
16 04:53 Calm 10.00 Fair CLR 63 55.9 73 62.1 78% 30 1015.8
16 03:53 Calm 10.00 Fair CLR 64 55.9 75% 29.99 1015.7
16 02:53 Calm 10.00 Fair CLR 63 57 81% 29.99 1015.7
16 01:53 Calm 10.00 Fair CLR 66.9 57 71% 29.99 1015.6
16 00:53 NW 3 10.00 Fair CLR 68 57.9 70% 30 1015.8
15 23:53 Calm 10.00 Fair CLR 71.1 57.9 63% 30 1015.8
15 22:53 NW 7 10.00 Fair CLR 73 57.9 84.9 73 59% 30 1015.7
15 21:53 N 9 10.00 Fair CLR 75.9 57.9 54% 78 30 1015.9
15 20:53 NW 6 10.00 Fair CLR 78.1 59 52% 79 29.99 1015.6
Date Time (pdt) Wind (mph) Vis. (mi.) Weather Sky Cond. Air Dwpt Max. Min. Relative Humidity Wind Chill (°F) Heat Index (°F) altimeter (in) sea level (mb) 1 hr 3 hr 6 hr
6 hour
Temperature (ºF) Pressure Precipitation (in)